Grand Marais, MN

1:54 PM CDT on August 26, 2016 (GMT -0500)
Grand Marais

Weather History for KGNA - June, 2013

Change the Weather History Date:

Sunday, June 30, 2013

  Actual Average (KCKC) Record (KCKC)
Temperature  
Mean Temperature 60 °F -  
Max Temperature 75 °F 68 °F 86 °F (2002)
Min Temperature 50 °F 48 °F 1 °F (1997)
Degree Days  
Heating Degree Days 6    
Growing Degree Days 10 (Base 50)    
Moisture  
Dew Point 47 °F    
Average Humidity 64    
Maximum Humidity 84    
Minimum Humidity 47    
Precipitation  
Precipitation 0.00 in - - ()
Sea Level Pressure  
Sea Level Pressure 30.03 in    
Wind  
Wind Speed 7 mph (NW)    
Max Wind Speed 12 mph    
Max Gust Speed 20 mph    
Averages and records for this station are not official NWS values.
T = Trace of Precipitation, MM = Missing Value Source: NWS Daily Summary

Daily Weather History Graph

Daily Weather History Graph

Search for Another Location

Airport or City:

Trip Planner

Search our weather history database for the weather conditions in past years. The results will help you decide how hot, cold, wet, or windy it might be!

Date:

Astronomy

Jun. 30, 2013 Rise Set
Actual Time 5:06 AM CDT 9:03 PM CDT
Civil Twilight 4:26 AM CDT 9:43 PM CDT
Nautical Twilight 3:29 AM CDT 10:39 PM CDT
Astronomical Twilight 2:00 AM CDT 12:07 AM CDT
Moon 12:27 AM CDT (6/30) 1:58 PM CDT (6/30)
Length of Visible Light 17h 17m
Length of Day
15h 56m
Last Quarter, 45% of the Moon is Illuminated
Jun 30
Last Quarter
Jul 8
New
Jul 15
First Quarter
Jul 22
Full
Jul 29
Last Quarter

Hourly Weather History & Observations

Time (CDT) Temp. Dew Point Humidity Pressure Visibility Wind Dir Wind Speed Gust Speed Precip Events Conditions
12:56 AM 64.9 °F 45.0 °F 48% 29.95 in - NNW 9.2 mph - N/A   Unknown
1:56 AM 64.9 °F 44.1 °F 47% 29.96 in - NNW 10.4 mph 18.4 mph N/A   Unknown
2:56 AM 64.9 °F 45.0 °F 48% 29.96 in - NNW 11.5 mph 19.6 mph N/A   Unknown
3:56 AM 64.9 °F 46.0 °F 50% 29.96 in - NNW 11.5 mph 18.4 mph N/A   Unknown
4:56 AM 64.0 °F 46.9 °F 54% 29.99 in - NNW 10.4 mph - N/A   Unknown
5:56 AM 64.9 °F 46.9 °F 52% 30.00 in - NNW 8.1 mph - N/A   Unknown
6:56 AM 66.9 °F 48.9 °F 52% 30.01 in - NNW 8.1 mph - N/A   Unknown
7:56 AM 69.1 °F 51.1 °F 53% 30.01 in - NNW 8.1 mph - N/A   Unknown
8:56 AM 61.0 °F 46.9 °F 60% 30.04 in - Calm Calm - N/A   Unknown
9:56 AM 57.0 °F 46.0 °F 67% 30.05 in - Calm Calm - N/A   Unknown
10:56 AM 53.1 °F 44.1 °F 71% 30.05 in - Calm Calm - N/A   Unknown
11:56 AM 55.0 °F 46.0 °F 72% 30.05 in - SSW 4.6 mph - N/A   Unknown
12:56 PM 57.9 °F 48.0 °F 70% 30.06 in - WSW 4.6 mph - N/A   Unknown
1:56 PM 57.0 °F 48.0 °F 72% 30.05 in - WSW 4.6 mph - N/A   Unknown
2:56 PM 59.0 °F 48.0 °F 67% 30.06 in - Variable 3.5 mph - N/A   Unknown
3:56 PM 57.0 °F 48.0 °F 72% 30.05 in - WSW 4.6 mph - N/A   Unknown
4:56 PM 55.9 °F 46.9 °F 72% 30.06 in - WSW 5.8 mph - N/A   Unknown
5:56 PM 55.9 °F 45.0 °F 67% 30.06 in - WSW 4.6 mph - N/A   Unknown
6:56 PM 54.0 °F 44.1 °F 69% 30.06 in - Calm Calm - N/A   Unknown
7:56 PM 57.0 °F 46.0 °F 67% 30.05 in - Calm Calm - N/A   Unknown
8:56 PM 54.0 °F 46.9 °F 77% 30.06 in - Calm Calm - N/A   Unknown
9:56 PM 50.0 °F 45.0 °F 83% 30.08 in - Calm Calm - N/A   Unknown
10:56 PM 55.9 °F 51.1 °F 84% 30.09 in - Calm Calm - N/A   Unknown
11:56 PM 61.0 °F 48.9 °F 64% 30.11 in - ENE 8.1 mph - N/A   Unknown